GALAXY 3R

导读

GALAXY 3R(银河3R)是由美国休斯公司研发,泛美卫星公司运营的通信卫星,由美加合作,于1995年12月15日在美国卡纳维拉尔角用宇宙神2A火箭成功发射。卫星重3069千克,设计最低寿命8年,运行在地球静止轨道,主要为美国全境提供视频和电信服务,其Ku波段容量可切换覆盖拉美地区,是银河卫星系列的重要成员。

Basic Information
目录编号:
23741
目录名称:
GALAXY 3R
国际标识:
1995-069A
轨道中心:
EARTH
卫星名称:
GALAXY 3R
卫星全名:
--
卫星状态:
在轨 (已飞行11232 天)
发射日期:
1995-12-15 UTC
国别 :
美国 (US)
星等 :
--
This satellite is enrolled in the Space Conjunction Data Service (SCDS) and the current flight risk assessment level is: No High Risk
Orbit Information
数据来源 国际轨道数据 AOE轨道数据
星历时间 2026-09-15T17:46:04+0800
13小时前
查看轨道信息
2026-09-12T17:00:00+0800
3天前
查看轨道信息
半长轴 42150.409km 42150.185km
偏心率 0.0003967 0.0004167
轨道倾角 13.374° 13.371°
近地点辐角 146.735° 140.829°
升交点赤经 15.546° 15.569°
平近点角 246.687° 237.512°
近地点 35755.55km 35754.484km
远地点 35788.994km 35789.612km
周期 1435.365分钟 1435.354分钟
每日圈数 1.003229 1.003237
Detailed Information
使用方式:
暂无
2D Orbit Map
3D Orbit Map
Orbit Altitude Analysis Chart
Orbit Inclination Analysis Chart
Orbit Comprehensive Analysis Chart
View Comprehensive Chart
Miss Distance Evolution Trend with All Objects Subscribe to Flight Safety Assessment
Collision Probability Evolution Trend with All Objects Subscribe to Flight Safety Assessment